TimeCDT,TemperatureF,Dew PointF,Humidity,Sea Level PressureIn,VisibilityMPH,Wind Direction,Wind SpeedMPH,Gust SpeedMPH,PrecipitationIn,Events,Conditions,WindDirDegrees,DateUTC
12:54 AM,64.0,57.9,80,29.99,9.0,ENE,3.5,-,N/A,,Clear,70,2013-06-14 05:54:00
1:54 AM,64.0,59.0,84,30.01,9.0,Calm,Calm,-,N/A,,Mostly Cloudy,0,2013-06-14 06:54:00
2:54 AM,64.0,57.9,80,29.99,9.0,NNE,4.6,-,N/A,,Scattered Clouds,30,2013-06-14 07:54:00
3:54 AM,63.0,60.1,90,29.97,10.0,Calm,Calm,-,N/A,,Mostly Cloudy,0,2013-06-14 08:54:00
4:33 AM,66.2,59.0,78,29.98,10.0,ESE,5.8,-,0.00,Rain-Thunderstorm,Light Rain,110,2013-06-14 09:33:00
4:54 AM,66.0,59.0,78,29.95,10.0,SE,10.4,-,0.00,,Overcast,140,2013-06-14 09:54:00
5:54 AM,69.1,60.1,73,29.94,10.0,SE,6.9,-,N/A,,Mostly Cloudy,140,2013-06-14 10:54:00
6:54 AM,68.0,60.1,76,29.95,10.0,South,8.1,-,N/A,,Mostly Cloudy,170,2013-06-14 11:54:00
7:54 AM,66.9,60.1,79,29.94,10.0,South,13.8,-,N/A,,Clear,180,2013-06-14 12:54:00
8:54 AM,68.0,61.0,78,29.91,10.0,SE,9.2,-,0.00,Rain,Light Rain,140,2013-06-14 13:54:00
9:54 AM,70.0,63.0,78,29.85,10.0,SE,15.0,-,0.00,Rain,Light Rain,130,2013-06-14 14:54:00
10:54 AM,75.0,66.0,73,29.80,10.0,South,23.0,31.1,0.00,,Clear,170,2013-06-14 15:54:00
11:54 AM,81.0,70.0,69,29.86,10.0,South,9.2,-,N/A,,Clear,170,2013-06-14 16:54:00
12:54 PM,84.0,70.0,63,29.83,10.0,South,18.4,25.3,N/A,,Clear,180,2013-06-14 17:54:00
1:54 PM,87.1,70.0,57,29.81,10.0,SSE,25.3,31.1,N/A,,Clear,160,2013-06-14 18:54:00
2:54 PM,89.1,71.1,55,29.80,10.0,South,21.9,29.9,N/A,,Clear,180,2013-06-14 19:54:00
3:54 PM,90.0,72.0,55,29.78,10.0,South,19.6,26.5,N/A,,Clear,170,2013-06-14 20:54:00
4:54 PM,91.9,71.1,50,29.75,10.0,South,21.9,29.9,N/A,,Clear,170,2013-06-14 21:54:00
5:54 PM,90.0,72.0,55,29.73,10.0,SSE,13.8,-,N/A,,Clear,160,2013-06-14 22:54:00
6:54 PM,88.0,73.0,61,29.71,10.0,SSE,18.4,25.3,N/A,,Clear,150,2013-06-14 23:54:00
7:50 PM,86.0,57.2,37,29.79,6.0,WNW,24.2,33.4,N/A,,Haze,300,2013-06-15 00:50:00
7:54 PM,84.0,55.0,37,29.76,4.0,WNW,18.4,33.4,N/A,Thunderstorm,Unknown,290,2013-06-15 00:54:00
8:01 PM,84.2,53.6,35,29.78,4.0,West,19.6,26.5,N/A,Thunderstorm,Unknown,270,2013-06-15 01:01:00
8:50 PM,82.4,55.4,39,29.84,10.0,SSW,4.6,-,N/A,,Overcast,210,2013-06-15 01:50:00
8:54 PM,81.0,57.0,44,29.82,10.0,SE,5.8,-,N/A,,Overcast,130,2013-06-15 01:54:00
9:54 PM,75.9,61.0,60,29.87,10.0,ENE,13.8,-,N/A,,Mostly Cloudy,60,2013-06-15 02:54:00
10:54 PM,73.0,63.0,71,29.85,10.0,East,13.8,24.2,N/A,,Mostly Cloudy,90,2013-06-15 03:54:00
11:54 PM,75.0,60.1,60,29.84,10.0,ESE,13.8,-,N/A,,Clear,120,2013-06-15 04:54:00